| time (UTC) | temp F | wind direction | speed MPH | gust MPH | rain 1hr in | rain 24hr in | rain mn in | humidity % | barometer mb |
| 20260504234416 | 65 | 290 | 4.0 | 9.0 | 0.00 | 0.00 | 0.00 | 63 | 1009.7 |
| 20260504233921 | 65 | 308 | 4.0 | 9.0 | 0.00 | 0.00 | 0.00 | 64 | 1009.7 |
| 20260504233414 | 65 | 337 | 4.0 | 11.0 | 0.00 | 0.00 | 0.00 | 65 | 1009.7 |
| 20260504232913 | 65 | 304 | 5.0 | 11.0 | 0.00 | 0.00 | 0.00 | 67 | 1009.7 |
| 20260504231911 | 64 | 303 | 4.0 | 11.0 | 0.00 | 0.00 | 0.00 | 67 | 1009.8 |
| 20260504231409 | 64 | 302 | 4.0 | 11.0 | 0.00 | 0.00 | 0.00 | 66 | 1009.7 |
| 20260504230907 | 62 | 311 | 4.0 | 12.0 | 0.00 | 0.00 | 0.00 | 68 | 1009.5 |
| 20260504230405 | 62 | 294 | 4.0 | 12.0 | 0.00 | 0.00 | 0.00 | 67 | 1009.5 |
| 20260504225402 | 63 | 318 | 4.0 | 10.0 | 0.00 | 0.00 | 0.00 | 66 | 1009.6 |
| 20260504224859 | 64 | 287 | 4.0 | 10.0 | 0.00 | 0.00 | 0.00 | 65 | 1009.6 |
| 20260504224400 | 64 | 322 | 4.0 | 9.0 | 0.00 | 0.00 | 0.00 | 63 | 1009.8 |
| 20260504223856 | 65 | 277 | 4.0 | 9.0 | 0.00 | 0.00 | 0.00 | 63 | 1009.8 |
| 20260504223356 | 65 | 355 | 5.0 | 12.0 | 0.00 | 0.00 | 0.00 | 63 | 1009.8 |
| 20260504222854 | 65 | 319 | 4.0 | 12.0 | 0.00 | 0.00 | 0.00 | 62 | 1009.9 |
| 20260504222353 | 65 | 323 | 5.0 | 12.0 | 0.00 | 0.00 | 0.00 | 62 | 1009.9 |
| 20260504221853 | 65 | 288 | 5.0 | 12.0 | 0.00 | 0.00 | 0.00 | 63 | 1009.9 |
| 20260504221353 | 66 | 325 | 5.0 | 13.0 | 0.00 | 0.00 | 0.00 | 63 | 1010.0 |
| 20260504220851 | 67 | 315 | 5.0 | 13.0 | 0.00 | 0.00 | 0.00 | 63 | 1010.0 |
| 20260504220352 | 67 | 325 | 5.0 | 9.0 | 0.00 | 0.00 | 0.00 | 63 | 1010.0 |
| 20260504215850 | 67 | 339 | 4.0 | 10.0 | 0.00 | 0.00 | 0.00 | 61 | 1010.1 |
| 20260504215349 | 68 | 344 | 4.0 | 10.0 | 0.00 | 0.00 | 0.00 | 60 | 1010.1 |
| 20260504214854 | 68 | 338 | 5.0 | 10.0 | 0.00 | 0.00 | 0.00 | 60 | 1010.1 |
| 20260504214350 | 68 | 328 | 5.0 | 10.0 | 0.00 | 0.00 | 0.00 | 59 | 1010.3 |
| 20260504213847 | 68 | 348 | 5.0 | 10.0 | 0.00 | 0.00 | 0.00 | 59 | 1010.3 |
| 20260504213346 | 68 | 334 | 5.0 | 10.0 | 0.00 | 0.00 | 0.00 | 58 | 1010.3 |
| 20260504212848 | 68 | 328 | 4.0 | 10.0 | 0.00 | 0.00 | 0.00 | 58 | 1010.3 |
| 20260504212347 | 68 | 336 | 5.0 | 10.0 | 0.00 | 0.00 | 0.00 | 58 | 1010.3 |
| 20260504211846 | 67 | 319 | 5.0 | 11.0 | 0.00 | 0.00 | 0.00 | 60 | 1010.3 |
| 20260504211348 | 65 | 279 | 5.0 | 11.0 | 0.00 | 0.00 | 0.00 | 61 | 1010.3 |
| 20260504210844 | 65 | 327 | 4.0 | 10.0 | 0.00 | 0.00 | 0.00 | 62 | 1010.3 |
| 20260504205836 | 64 | 311 | 4.0 | 7.0 | 0.00 | 0.00 | 0.00 | 62 | 1010.2 |
| 20260504205342 | 64 | 266 | 4.0 | 9.0 | 0.00 | 0.00 | 0.00 | 61 | 1010.2 |
| 20260504204840 | 65 | 264 | 4.0 | 9.0 | 0.00 | 0.00 | 0.00 | 60 | 1010.3 |
| 20260504204334 | 65 | 316 | 4.0 | 9.0 | 0.00 | 0.00 | 0.00 | 59 | 1010.2 |
| 20260504203831 | 65 | 312 | 4.0 | 9.0 | 0.00 | 0.00 | 0.00 | 59 | 1010.2 |
| 20260504203330 | 65 | 312 | 4.0 | 13.0 | 0.00 | 0.00 | 0.00 | 60 | 1010.2 |
| 20260504202830 | 65 | 262 | 4.0 | 13.0 | 0.00 | 0.00 | 0.00 | 59 | 1010.2 |
| 20260504201829 | 64 | 313 | 3.0 | 7.0 | 0.00 | 0.00 | 0.00 | 61 | 1010.1 |
| 20260504201329 | 64 | 337 | 3.0 | 7.0 | 0.00 | 0.00 | 0.00 | 61 | 1010.2 |
| 20260504200828 | 64 | 309 | 3.0 | 8.0 | 0.00 | 0.00 | 0.00 | 61 | 1010.2 |
| 20260504195322 | 64 | 263 | 2.0 | 9.0 | 0.00 | 0.00 | 0.00 | 64 | 1010.1 |
| 20260504194819 | 63 | 290 | 3.0 | 9.0 | 0.00 | 0.00 | 0.00 | 65 | 1010.1 |
| 20260504194318 | 63 | 281 | 4.0 | 9.0 | 0.00 | 0.00 | 0.00 | 64 | 1010.1 |
| 20260504193816 | 64 | 299 | 3.0 | 6.0 | 0.00 | 0.00 | 0.00 | 65 | 1010.1 |
| 20260504192816 | 63 | 270 | 5.0 | 11.0 | 0.00 | 0.00 | 0.00 | 66 | 1010.0 |
| 20260504191816 | 63 | 296 | 4.0 | 10.0 | 0.00 | 0.00 | 0.00 | 66 | 1010.0 |
| 20260504191317 | 62 | 324 | 3.0 | 7.0 | 0.00 | 0.00 | 0.00 | 68 | 1010.2 |
| 20260504190817 | 62 | 300 | 3.0 | 6.0 | 0.00 | 0.00 | 0.00 | 67 | 1010.2 |
| 20260504190315 | 62 | 327 | 4.0 | 8.0 | 0.00 | 0.00 | 0.00 | 66 | 1010.2 |
| 20260504185809 | 62 | 290 | 4.0 | 8.0 | 0.00 | 0.00 | 0.00 | 66 | 1010.1 |
| 20260504185311 | 62 | 269 | 4.0 | 9.0 | 0.00 | 0.00 | 0.00 | 65 | 1010.1 |
| 20260504184812 | 62 | 281 | 3.0 | 9.0 | 0.00 | 0.00 | 0.00 | 64 | 1010.1 |
| 20260504184307 | 63 | 281 | 3.0 | 7.0 | 0.00 | 0.00 | 0.00 | 62 | 1010.1 |
| 20260504183804 | 64 | 281 | 4.0 | 8.0 | 0.00 | 0.00 | 0.00 | 61 | 1010.1 |
| 20260504183306 | 65 | 314 | 3.0 | 8.0 | 0.00 | 0.00 | 0.00 | 58 | 1010.2 |
| 20260504182808 | 66 | 46 | 1.0 | 5.0 | 0.00 | 0.00 | 0.00 | 57 | 1010.2 |
| 20260504182306 | 66 | 73 | 2.0 | 5.0 | 0.00 | 0.00 | 0.00 | 56 | 1010.2 |
| 20260504181302 | 67 | 55 | 2.0 | 5.0 | 0.00 | 0.00 | 0.00 | 55 | 1010.3 |
| 20260504180259 | 66 | 333 | 2.0 | 5.0 | 0.00 | 0.00 | 0.00 | 59 | 1010.3 |
| 20260504175756 | 65 | 318 | 2.0 | 7.0 | 0.00 | 0.00 | 0.00 | 60 | 1010.3 |
| 20260504175256 | 65 | 318 | 2.0 | 7.0 | 0.00 | 0.00 | 0.00 | 61 | 1010.3 |
| 20260504174756 | 64 | 300 | 2.0 | 6.0 | 0.00 | 0.00 | 0.00 | 63 | 1010.2 |
| 20260504174251 | 63 | 296 | 1.0 | 6.0 | 0.00 | 0.00 | 0.00 | 64 | 1010.2 |
| 20260504173750 | 63 | 296 | 0.0 | 4.0 | 0.00 | 0.00 | 0.00 | 65 | 1010.2 |
| 20260504173250 | 62 | 296 | 1.0 | 6.0 | 0.00 | 0.00 | 0.00 | 65 | 1010.2 |
| 20260504172749 | 62 | 296 | 1.0 | 6.0 | 0.00 | 0.00 | 0.00 | 65 | 1010.2 |
| 20260504172247 | 62 | 296 | 1.0 | 4.0 | 0.00 | 0.00 | 0.00 | 64 | 1010.2 |
| 20260504171747 | 62 | 296 | 2.0 | 6.0 | 0.00 | 0.00 | 0.00 | 66 | 1010.2 |
| 20260504171252 | 62 | 296 | 2.0 | 6.0 | 0.00 | 0.00 | 0.00 | 64 | 1010.2 |
| 20260504170745 | 63 | 331 | 2.0 | 5.0 | 0.00 | 0.00 | 0.00 | 66 | 1010.2 |
| 20260504170243 | 63 | 319 | 2.0 | 5.0 | 0.00 | 0.00 | 0.00 | 64 | 1010.2 |
| 20260504160223 | 59 | 124 | 0.0 | 2.0 | 0.00 | 0.00 | 0.00 | 74 | 1010.2 |
| 20260504150700 | 52 | 292 | 0.0 | 0.0 | 0.00 | 0.00 | 0.00 | 90 | 1010.0 |
| 20260504150158 | 52 | 292 | 0.0 | 0.0 | 0.00 | 0.00 | 0.00 | 91 | 1010.0 |
| 20260504141139 | 49 | 276 | 0.0 | 0.0 | 0.00 | 0.00 | 0.00 | 94 | 1009.6 |
| 20260504140640 | 49 | 276 | 0.0 | 0.0 | 0.00 | 0.00 | 0.00 | 94 | 1009.6 |
| 20260504140139 | 48 | 276 | 0.0 | 0.0 | 0.00 | 0.00 | 0.00 | 95 | 1009.5 |
| 20260504130604 | 47 | 278 | 0.0 | 0.0 | 0.00 | 0.00 | 0.00 | 93 | 1009.4 |
| 20260504110517 | 49 | 278 | 0.0 | 0.0 | 0.00 | 0.00 | 0.00 | 94 | 1009.7 |
| 20260504100454 | 48 | 278 | 0.0 | 3.0 | 0.00 | 0.00 | 0.00 | 93 | 1009.6 |
| 20260504081913 | 47 | 278 | 0.0 | 0.0 | 0.00 | 0.00 | 0.00 | 91 | 1010.3 |
| 20260504081412 | 47 | 278 | 0.0 | 0.0 | 0.00 | 0.00 | 0.00 | 91 | 1010.3 |
| 20260504080908 | 47 | 278 | 0.0 | 0.0 | 0.00 | 0.00 | 0.00 | 91 | 1010.3 |
| 20260504080407 | 47 | 278 | 0.0 | 0.0 | 0.00 | 0.00 | 0.00 | 91 | 1010.3 |
| 20260504070342 | 48 | 278 | 0.0 | 0.0 | 0.00 | 0.00 | 0.00 | 90 | 1010.4 |
| 20260504050248 | 52 | 278 | 0.0 | 0.0 | 0.00 | 0.00 | 0.00 | 85 | 1010.2 |
| 20260504045745 | 52 | 278 | 0.0 | 0.0 | 0.00 | 0.00 | 0.00 | 85 | 1010.0 |
| 20260504045245 | 52 | 278 | 0.0 | 0.0 | 0.00 | 0.00 | 0.00 | 85 | 1010.0 |
| 20260504043738 | 52 | 278 | 0.0 | 3.0 | 0.00 | 0.00 | 0.00 | 85 | 1010.0 |
| 20260504043230 | 52 | 278 | 1.0 | 3.0 | 0.00 | 0.00 | 0.00 | 85 | 1010.0 |
| 20260504042728 | 52 | 278 | 1.0 | 3.0 | 0.00 | 0.00 | 0.00 | 84 | 1009.7 |
| 20260504042228 | 52 | 278 | 1.0 | 2.0 | 0.00 | 0.00 | 0.00 | 84 | 1009.7 |
| 20260504041725 | 52 | 278 | 1.0 | 2.0 | 0.00 | 0.00 | 0.00 | 84 | 1009.7 |
| 20260504041220 | 52 | 278 | 0.0 | 2.0 | 0.00 | 0.00 | 0.00 | 83 | 1009.5 |
| 20260504040719 | 53 | 278 | 1.0 | 2.0 | 0.00 | 0.00 | 0.00 | 83 | 1009.5 |
| 20260504040215 | 53 | 278 | 1.0 | 2.0 | 0.00 | 0.00 | 0.00 | 82 | 1009.5 |
| 20260504034710 | 54 | 278 | 1.0 | 4.0 | 0.00 | 0.00 | 0.00 | 79 | 1009.5 |
| 20260504034205 | 54 | 278 | 1.0 | 4.0 | 0.00 | 0.00 | 0.00 | 78 | 1009.3 |
| 20260504033704 | 55 | 278 | 0.0 | 1.0 | 0.00 | 0.00 | 0.00 | 78 | 1009.3 |
| 20260504032200 | 56 | 278 | 0.0 | 2.0 | 0.00 | 0.00 | 0.00 | 76 | 1009.2 |
| 20260504031658 | 56 | 278 | 1.0 | 3.0 | 0.00 | 0.00 | 0.00 | 76 | 1009.2 |
| 20260504031157 | 56 | 278 | 2.0 | 3.0 | 0.00 | 0.00 | 0.00 | 76 | 1009.1 |
| 20260504030657 | 57 | 278 | 2.0 | 3.0 | 0.00 | 0.00 | 0.00 | 75 | 1009.1 |
| 20260504030156 | 57 | 278 | 1.0 | 4.0 | 0.00 | 0.00 | 0.00 | 75 | 1009.1 |
| 20260504025652 | 57 | 279 | 1.0 | 4.0 | 0.00 | 0.00 | 0.00 | 75 | 1009.0 |
| 20260504024148 | 58 | 279 | 1.0 | 3.0 | 0.00 | 0.00 | 0.00 | 73 | 1009.0 |
| 20260504023648 | 58 | 279 | 1.0 | 6.0 | 0.00 | 0.00 | 0.00 | 72 | 1009.0 |
| 20260504023143 | 59 | 279 | 1.0 | 6.0 | 0.00 | 0.00 | 0.00 | 71 | 1009.0 |
| 20260504022642 | 59 | 278 | 1.0 | 7.0 | 0.00 | 0.00 | 0.00 | 70 | 1008.7 |
| 20260504022140 | 60 | 282 | 1.0 | 7.0 | 0.00 | 0.00 | 0.00 | 68 | 1008.7 |
| 20260504021638 | 61 | 326 | 1.0 | 4.0 | 0.00 | 0.00 | 0.00 | 67 | 1008.7 |
| 20260504020636 | 61 | 288 | 1.0 | 3.0 | 0.00 | 0.00 | 0.00 | 65 | 1008.5 |
| 20260504020131 | 62 | 286 | 1.0 | 3.0 | 0.00 | 0.00 | 0.00 | 65 | 1008.5 |
| 20260504015629 | 62 | 285 | 2.0 | 6.0 | 0.00 | 0.00 | 0.00 | 64 | 1008.5 |
| 20260504014123 | 63 | 320 | 2.0 | 7.0 | 0.00 | 0.00 | 0.00 | 62 | 1008.5 |
| 20260504013624 | 63 | 320 | 2.0 | 7.0 | 0.00 | 0.00 | 0.00 | 62 | 1008.5 |
| 20260504013126 | 63 | 302 | 2.0 | 8.0 | 0.00 | 0.00 | 0.00 | 62 | 1008.5 |
| 20260504012118 | 63 | 279 | 3.0 | 9.0 | 0.00 | 0.00 | 0.00 | 62 | 1008.4 |
| 20260504011618 | 63 | 275 | 4.0 | 9.0 | 0.00 | 0.00 | 0.00 | 61 | 1008.4 |
| 20260504011116 | 63 | 346 | 4.0 | 11.0 | 0.00 | 0.00 | 0.00 | 61 | 1008.4 |
| 20260504010117 | 63 | 250 | 5.0 | 12.0 | 0.00 | 0.00 | 0.00 | 60 | 1008.4 |
| 20260504005616 | 63 | 303 | 5.0 | 11.0 | 0.00 | 0.00 | 0.00 | 60 | 1008.2 |
| 20260504005119 | 63 | 297 | 5.0 | 11.0 | 0.00 | 0.00 | 0.00 | 59 | 1008.2 |
| 20260504004623 | 64 | 277 | 4.0 | 10.0 | 0.00 | 0.00 | 0.00 | 60 | 1008.3 |
| 20260504004113 | 64 | 269 | 4.0 | 12.0 | 0.00 | 0.00 | 0.00 | 60 | 1008.1 |
| 20260504003612 | 64 | 303 | 5.0 | 12.0 | 0.00 | 0.00 | 0.00 | 60 | 1008.1 |
| 20260504003108 | 64 | 315 | 6.0 | 11.0 | 0.00 | 0.00 | 0.00 | 60 | 1008.1 |
| 20260504002604 | 64 | 306 | 5.0 | 10.0 | 0.00 | 0.00 | 0.00 | 59 | 1008.1 |
| 20260504001603 | 65 | 314 | 5.0 | 12.0 | 0.00 | 0.00 | 0.00 | 57 | 1008.1 |
| 20260504001103 | 65 | 289 | 5.0 | 12.0 | 0.00 | 0.00 | 0.00 | 56 | 1008.1 |
| 20260503235058 | 66 | 313 | 6.0 | 10.0 | 0.00 | 0.00 | 0.00 | 54 | 1008.0 |